Temperature
18 18 18 18 18 17 17 17 17 17 17 17 17 17 17 17 17 17 16 16 16 16 16 16 16 16 16 16 16 16 16 15 15 15 15 15 14 14 14 14 14 14 14
19 18 18 18 17 17 17 17 17 17 17 17 17 17 17 16 16 16 16 16 16 16 16 16 15 15 15 15 15 15 15 15 15 14 14 14 14 14 14 14 14 14 14
18 18 17 17 17 17 17 17 17 17 17 17 17 17 16 16 16 16 16 16 16 16 15 15 15 15 15 15 15 15 15 15 14 14 14 14 14 14 14 14 13 13 13
17 17 17 17 17 17 17 17 17 17 17 17 16 16 16 16 16 16 16 16 16 16 16 15 15 15 15 15 15 15 15 14 14 14 14 13 13 13 13 13 13 13 13
17 17 17 17 17 17 17 16 16 16 16 16 16 16 16 16 16 16 16 15 15 15 15 15 15 15 15 15 15 15 14 14 14 13 13 13 13 13 13 13 13 13 12
16 16 16 16 16 16 16 16 16 16 16 16 16 16 15 15 15 15 15 15 15 15 15 15 15 15 15 15 15 14 14 13 13 13 13 13 13 13 12 13 13 12 12
15 16 16 16 16 16 16 16 16 16 16 16 15 15 15 15 15 15 15 15 15 15 15 15 15 15 15 14 14 14 13 13 13 13 13 13 12 12 12 12 12 12 12
15 15 15 16 16 16 15 15 15 15 15 15 15 15 15 15 15 15 15 15 15 15 15 15 15 14 14 14 14 14 13 13 12 12 12 12 12 12 12 12 12 12 12
15 15 15 15 15 15 15 15 15 15 15 15 15 15 15 15 15 15 15 15 15 15 14 14 14 14 14 14 14 13 13 12 12 12 12 12 12 11 11 11 11 11 11
14 14 14 14 14 15 14 15 15 15 15 14 14 14 14 14 14 14 14 14 14 14 14 14 14 14 14 14 13 13 13 12 12 12 12 12 12 11 11 11 11 11 11
14 13 14 14 14 14 14 14 14 14 14 14 14 14 14 14 14 14 14 14 14 14 14 14 14 14 14 14 13 13 12 12 12 12 12 12 11 11 11 11 11 11 11
13 13 13 13 13 13 14 14 14 14 14 14 14 14 13 13 14 14 13 13 13 13 13 13 13 13 13 13 13 12 12 12 12 12 12 11 11 11 11 11 10 10 10
13 13 13 13 13 13 13 13 13 13 13 13 13 13 13 13 13 13 13 13 13 13 13 13 13 13 13 13 12 12 12 11 12 12 11 11 11 11 11 10 10 10 10
12 12 12 12 13 13 12 13 13 13 13 13 13 13 13 13 12 13 13 13 13 13 13 13 13 12 12 12 12 12 11 11 11 11 11 11 11 10 10 10 10 10 10
12 12 12 12 12 12 12 12 12 12 13 13 12 12 12 12 12 12 12 12 12 12 12 12 12 12 12 12 12 11 11 11 11 11 11 11 10 10 10 10 10 10 9
12 12 12 12 12 12 12 12 12 12 12 12 12 12 12 12 12 12 12 12 12 12 12 12 12 12 12 12 11 11 11 11 11 11 10 10 10 10 10 10 10 9 9
11 11 11 11 12 12 11 11 12 12 12 12 12 12 12 12 12 12 12 12 12 12 12 12 12 11 11 11 11 11 11 11 10 10 10 10 10 10 10 9 9 9 9
11 11 11 11 11 11 11 11 11 11 11 11 11 12 12 11 11 11 11 11 11 11 11 11 11 11 11 11 11 11 11 10 10 10 10 10 9 9 9 9 9 9 9
10 10 10 10 11 11 11 11 11 11 11 11 11 11 11 11 11 11 11 11 11 11 11 11 11 11 11 11 11 10 10 10 10 10 10 9 9 9 9 9 9 9 8
10 10 10 10 10 10 10 10 10 10 11 11 11 11 11 11 11 11 11 11 11 11 11 11 11 11 10 10 10 10 10 10 10 9 9 9 9 9 8 8 8 8 8
9 9 9 9 10 10 10 10 10 10 10 10 10 10 10 10 10 11 11 11 11 11 11 10 10 10 10 10 10 10 9 9 9 9 9 9 8 8 8 8 8 8 8
9 9 9 9 9 9 9 9 9 9 9 10 10 10 10 10 10 10 10 10 10 10 10 10 10 10 10 10 9 9 9 9 9 9 8 8 8 8 8 8 8 7 7
9 9 9 9 9 9 9 9 9 9 9 9 9 10 10 10 10 10 10 10 10 10 10 10 10 10 9 9 9 8 8 8 8 8 8 8 8 8 7 7 7 7 7
8 8 8 8 8 8 8 8 8 8 8 9 9 9 9 9 9 9 9 9 9 9 9 9 9 9 9 9 8 8 8 8 8 7 8 7 7 7 7 7 7 6 6
8 8 8 8 8 8 8 8 8 8 8 8 8 8 9 9 9 9 9 9 9 9 9 9 9 9 9 8 8 8 8 8 7 7 7 7 7 7 6 6 6 6 6
7 7 7 7 7 8 8 8 8 8 8 8 8 8 8 8 8 8 8 8 8 8 8 8 8 8 8 8 8 8 7 7 7 7 6 6 6 6 6 6 6 6 5
Wind_Speed
8 11 14 14 14 14 13 14 13 13 13 13 12 12 12 13 13 13 13 12 13 13 12 12 13 12 12 12 12 12 12 12 12 12 13 13 13 13 12 12 12 11 12
11 14 15 15 15 14 13 13 13 13 13 13 13 13 12 12 12 12 12 12 12 12 12 12 12 12 12 12 12 11 10 10 10 10 11 12 12 12 12 12 11 10 11
13 14 15 14 14 14 13 13 13 13 13 13 13 13 12 12 12 11 11 11 12 12 12 12 11 11 11 11 11 10 9 7 7 7 8 9 10 11 11 11 11 11 11
13 13 13 14 14 14 13 13 13 13 13 12 12 12 12 12 11 11 11 11 11 11 11 11 11 11 11 10 10 9 8 6 6 7 8 9 10 10 11 11 11 11 11
11 12 13 14 14 14 13 13 13 13 12 12 12 12 12 12 11 11 11 11 10 10 10 10 10 10 10 10 9 8 6 6 6 8 9 11 10 10 10 10 10 10 10
10 12 14 13 14 13 13 13 13 12 12 12 12 12 12 12 12 11 11 11 10 10 10 10 10 9 9 9 8 6 5 6 6 9 11 11 10 10 10 9 9 9 10
10 11 13 13 13 13 13 13 12 11 11 11 11 11 11 11 11 11 10 10 10 10 10 9 9 9 9 8 7 6 6 6 8 10 11 11 10 10 10 10 10 10 9
9 10 12 13 13 12 12 12 12 11 10 10 11 11 11 11 11 10 10 9 9 9 9 8 9 8 8 7 6 5 5 6 7 10 11 10 9 9 9 9 10 9 9
9 9 9 10 11 11 11 11 11 11 11 10 10 11 11 11 11 10 9 9 8 8 8 8 8 8 7 6 5 4 4 5 7 9 9 8 8 8 9 9 9 8 9
7 7 7 7 8 9 10 10 11 11 11 10 10 11 11 11 10 10 9 9 8 8 8 8 8 7 6 5 3 2 4 5 9 10 8 7 8 8 8 8 8 8 8
5 5 6 6 6 7 9 10 10 11 11 10 10 11 10 9 10 9 9 8 8 8 8 7 7 6 5 3 2 1 3 5 9 9 8 7 7 8 8 8 8 8 8
4 4 5 5 5 6 7 8 8 9 9 9 8 9 8 8 8 8 9 9 8 8 7 6 5 4 4 2 1 0 2 6 8 8 8 8 8 8 7 7 7 7 8
4 4 4 4 4 4 4 5 5 6 6 7 8 7 7 7 8 8 7 7 7 7 5 4 4 3 3 2 2 2 3 5 8 9 7 7 7 7 7 7 7 7 7
3 3 3 3 3 3 3 3 4 3 4 4 6 6 5 4 4 5 5 5 5 4 4 3 2 2 3 2 2 3 4 6 7 9 7 7 6 6 6 6 6 6 7
2 3 3 3 3 3 3 2 3 3 3 4 5 5 4 4 4 4 4 4 4 4 3 2 2 2 2 2 2 3 3 5 7 8 7 7 6 5 5 5 6 6 6
2 2 3 3 3 3 2 2 2 3 4 4 4 4 4 4 4 3 3 3 3 3 3 2 2 2 2 2 2 2 3 4 6 7 7 7 6 5 5 5 5 5 6
1 2 2 2 3 2 3 3 3 4 4 3 3 4 4 4 4 3 3 3 2 3 3 2 2 2 2 2 1 2 2 3 4 5 7 6 5 5 4 4 4 4 5
1 1 1 1 2 2 2 3 3 3 4 3 3 4 3 4 4 2 3 3 3 3 2 2 2 2 1 1 1 1 2 2 3 4 5 5 5 4 4 3 3 4 5
1 1 1 1 1 2 2 3 3 4 4 4 4 4 3 3 3 2 2 3 4 3 2 2 2 2 2 1 1 1 1 1 2 3 4 4 4 4 3 2 2 3 4
1 1 1 1 2 2 2 2 2 3 3 3 3 3 3 3 3 2 2 3 4 3 2 2 2 2 2 1 1 1 1 1 1 2 3 3 4 4 3 1 1 2 4
1 1 1 1 2 2 1 1 1 1 1 1 2 3 3 2 2 2 2 2 3 3 3 3 2 3 2 1 2 0 1 1 2 2 2 2 3 3 2 1 1 1 2
0 0 1 1 1 1 1 0 1 2 1 2 2 2 2 2 2 1 2 2 3 3 3 3 2 2 1 2 2 2 0 1 1 2 2 2 2 3 3 2 1 1 2
0 0 1 1 1 1 2 2 2 2 2 1 1 1 1 1 0 1 2 3 3 4 4 3 3 2 2 1 1 2 2 2 1 1 2 2 2 2 2 2 2 1 2
0 0 1 2 1 1 2 3 3 2 2 1 1 1 0 0 0 1 1 2 3 3 4 3 2 2 3 2 1 0 1 1 1 1 2 1 1 2 2 1 1 1 2
1 1 1 2 2 2 1 2 2 1 1 1 1 1 1 0 0 1 2 2 2 3 3 3 3 2 2 2 2 0 0 0 0 1 1 2 2 2 1 1 1 1 2
1 2 2 2 2 2 2 2 1 1 1 2 1 1 1 0 0 0 1 2 2 2 3 2 2 3 2 2 1 1 1 1 1 1 1 1 2 2 1 1 1 0 2
Wind_Direction
122 131 136 134 133 131 127 126 125 121 118 116 114 112 108 106 104 102 100 100 98 96 94 91 88 86 86 85 82 80 79 78 77 76 74 73 70 67 63 61 61 59 59
128 132 137 132 130 130 129 128 125 122 120 118 116 113 110 108 107 106 106 105 102 98 94 92 90 88 87 86 83 81 81 82 81 81 80 73 69 66 63 61 60 59 61
124 131 138 134 132 129 126 125 125 123 122 120 117 114 112 109 108 109 110 107 102 98 95 91 91 89 88 86 84 82 79 81 78 76 77 77 72 66 64 64 61 61 62
123 131 137 136 133 131 130 126 124 125 123 122 118 115 114 111 110 109 108 106 104 101 98 94 91 90 89 87 85 83 77 69 62 65 71 72 68 67 66 65 63 62 60
119 126 133 135 134 133 131 129 124 123 125 123 119 117 115 112 109 107 106 106 106 104 100 98 95 92 90 88 86 82 70 49 48 64 68 70 65 67 66 62 60 58 59
120 123 129 133 136 135 133 130 127 124 127 127 123 118 115 110 107 104 104 104 104 103 102 100 98 94 90 87 84 76 55 39 49 70 70 68 63 62 63 61 59 63 59
123 122 132 132 134 137 135 133 131 130 127 130 127 123 117 113 109 106 106 106 107 107 105 102 100 95 91 87 80 66 45 32 71 74 71 65 63 62 60 59 61 62 58
116 119 131 134 133 131 135 136 134 134 132 129 131 128 124 119 115 112 109 106 107 108 106 106 103 100 95 89 79 63 40 36 65 79 75 66 65 65 62 62 62 60 59
108 114 122 133 135 134 133 138 138 135 134 132 132 131 126 122 120 116 111 110 110 110 109 108 108 105 102 94 82 58 34 31 68 77 76 69 72 71 67 63 61 60 58
106 114 118 122 132 135 136 138 138 135 134 133 131 131 128 125 123 118 113 113 111 111 111 109 107 107 107 101 87 43 9 36 77 76 73 73 80 76 71 65 62 60 57
106 120 128 130 126 133 139 138 137 136 137 134 133 138 137 131 127 123 119 116 116 116 116 115 114 114 115 114 106 8 5 75 84 82 74 79 82 78 72 67 62 56 52
133 130 135 134 128 127 139 139 141 144 148 145 146 152 151 139 133 131 129 126 125 125 125 128 131 134 127 143 177 77 64 90 94 90 79 84 80 76 71 67 61 52 47
143 139 142 137 127 122 128 139 142 146 154 154 152 159 146 133 132 129 132 132 132 132 130 139 146 144 129 115 101 82 72 86 94 93 86 87 82 75 75 67 56 47 42
148 142 140 137 130 125 123 138 140 137 150 151 159 162 144 137 136 138 142 146 145 146 143 159 161 133 114 111 108 98 89 91 99 104 97 91 87 80 74 63 50 41 36
151 159 144 146 145 133 129 140 140 137 148 151 156 160 147 142 145 142 142 139 140 141 150 155 133 119 108 114 108 98 95 105 112 113 108 98 91 81 70 58 44 35 29
188 179 160 155 156 140 148 151 144 136 131 131 139 149 136 131 132 138 133 131 132 142 154 142 124 114 103 97 92 88 92 107 118 121 116 102 94 85 71 56 41 31 24
201 174 163 170 155 158 162 154 136 128 125 121 133 144 134 120 121 134 138 139 142 143 146 124 104 92 92 97 113 94 84 95 109 118 124 122 109 96 79 55 36 26 23
206 151 137 129 137 166 155 138 125 114 108 108 109 114 125 121 128 124 139 146 143 133 124 121 124 111 110 133 155 142 114 104 112 118 120 119 116 106 88 68 36 18 15
89 77 82 93 104 112 117 117 112 105 102 98 101 103 119 119 119 111 140 138 136 124 122 139 136 141 134 158 168 145 147 145 146 129 121 123 121 112 105 91 49 13 8
72 83 99 114 81 74 84 105 111 99 93 82 91 93 94 120 130 122 131 140 133 137 144 139 141 130 140 160 142 132 173 164 145 144 150 147 144 133 120 103 73 18 0
81 91 100 94 81 90 124 133 138 129 121 98 80 89 74 81 103 123 133 137 137 150 157 153 147 140 143 123 97 45 295 207 173 175 173 163 156 153 157 148 95 37 349
106 111 161 130 141 134 150 157 165 146 139 129 82 71 72 71 87 112 135 150 144 147 139 143 142 144 158 140 139 151 231 302 283 210 176 174 175 169 178 186 175 318 331
126 183 213 182 182 152 116 89 97 98 92 84 70 48 27 22 45 126 151 156 152 151 152 153 151 148 169 170 125 136 158 219 248 265 210 190 190 180 186 200 193 256 294
161 174 179 186 140 120 126 128 128 149 155 179 181 182 139 326 261 138 154 164 158 153 151 159 154 156 150 170 193 62 160 157 145 274 286 245 210 210 203 194 189 251 283
147 153 146 143 105 91 96 134 141 136 130 128 117 130 117 85 11 115 172 158 152 145 147 151 155 151 158 165 163 159 243 359 66 158 251 290 296 261 209 194 169 265 311
88 108 113 120 112 97 72 82 115 135 133 142 138 152 131 141 143 54 113 135 141 141 146 159 160 150 141 129 126 131 143 150 174 136 222 266 288 280 264 215 157 107 342
Height
1503 1505 1507 1509 1511 1513 1515 1517 1518 1520 1521 1522 1524 1525 1526 1527 1528 1529 1530 1531 1531 1532 1532 1533 1534 1534 1534 1534 1535 1535 1535 1535 1536 1536 1535 1535 1535 1535 1535 1535 1535 1534 1535
1501 1504 1507 1509 1511 1513 1515 1517 1519 1520 1521 1523 1524 1525 1526 1527 1528 1529 1530 1531 1532 1533 1533 1534 1534 1534 1535 1535 1535 1535 1535 1536 1536 1536 1536 1536 1536 1536 1536 1536 1535 1535 1535
1501 1503 1506 1509 1511 1513 1515 1517 1519 1520 1522 1523 1524 1526 1527 1528 1529 1530 1531 1532 1532 1533 1533 1534 1535 1535 1535 1535 1536 1536 1536 1536 1536 1537 1537 1537 1537 1537 1536 1536 1536 1536 1536
1502 1503 1506 1508 1511 1513 1515 1517 1519 1520 1522 1523 1524 1526 1527 1528 1529 1530 1531 1532 1533 1533 1534 1534 1535 1535 1536 1536 1536 1536 1537 1537 1537 1537 1537 1537 1537 1537 1537 1537 1536 1536 1536
1502 1504 1506 1508 1511 1513 1515 1517 1519 1520 1522 1523 1525 1526 1527 1528 1529 1530 1531 1532 1533 1533 1534 1534 1535 1535 1536 1536 1536 1537 1537 1537 1538 1538 1537 1537 1537 1537 1537 1537 1537 1536 1536
1502 1504 1507 1509 1511 1513 1515 1517 1518 1520 1521 1523 1525 1526 1527 1528 1529 1530 1531 1532 1533 1533 1534 1535 1535 1535 1536 1536 1537 1537 1537 1538 1538 1538 1538 1538 1537 1537 1537 1537 1537 1536 1535
1502 1504 1507 1509 1511 1513 1514 1516 1518 1520 1521 1523 1524 1526 1527 1528 1529 1530 1531 1532 1532 1533 1534 1535 1535 1535 1536 1536 1537 1537 1537 1538 1538 1538 1538 1537 1537 1537 1537 1537 1536 1536 1535
1502 1504 1506 1508 1510 1512 1514 1516 1518 1519 1521 1522 1524 1525 1527 1528 1529 1530 1531 1531 1532 1533 1534 1534 1535 1535 1536 1536 1537 1537 1537 1537 1538 1537 1537 1537 1537 1537 1536 1536 1536 1535 1535
1503 1504 1505 1508 1510 1512 1513 1515 1517 1519 1520 1522 1523 1525 1526 1527 1528 1529 1530 1531 1532 1533 1534 1534 1535 1535 1535 1536 1536 1537 1537 1537 1537 1537 1537 1537 1536 1536 1536 1535 1535 1535 1534
1502 1503 1504 1506 1509 1511 1512 1514 1516 1518 1519 1521 1522 1524 1525 1526 1528 1529 1530 1530 1531 1532 1533 1533 1534 1534 1535 1535 1536 1536 1537 1537 1536 1536 1536 1536 1536 1536 1535 1535 1534 1534 1534
1502 1503 1504 1506 1507 1510 1511 1513 1515 1517 1518 1520 1521 1522 1524 1525 1527 1528 1529 1530 1531 1531 1532 1533 1533 1534 1534 1535 1535 1536 1536 1536 1536 1536 1536 1536 1536 1535 1535 1534 1534 1533 1533
1500 1502 1503 1505 1506 1508 1510 1511 1513 1515 1517 1518 1520 1521 1523 1524 1525 1527 1528 1529 1530 1530 1531 1532 1532 1533 1533 1534 1534 1535 1535 1535 1535 1535 1535 1535 1535 1535 1534 1534 1533 1533 1532
1500 1501 1502 1504 1505 1506 1508 1510 1511 1513 1515 1517 1518 1520 1521 1523 1524 1525 1526 1527 1528 1529 1530 1530 1531 1532 1532 1533 1533 1534 1534 1534 1534 1534 1534 1535 1535 1534 1534 1533 1532 1531 1531
1499 1500 1501 1502 1504 1505 1507 1508 1510 1511 1513 1515 1517 1518 1520 1521 1522 1523 1524 1525 1526 1527 1528 1529 1530 1530 1531 1532 1532 1532 1533 1533 1533 1533 1534 1534 1534 1533 1533 1532 1532 1531 1530
1497 1498 1499 1501 1502 1504 1505 1507 1508 1510 1511 1513 1515 1517 1518 1519 1520 1521 1523 1524 1525 1526 1527 1528 1529 1529 1530 1530 1531 1531 1532 1532 1532 1532 1532 1533 1533 1532 1532 1531 1530 1530 1528
1495 1497 1498 1499 1500 1501 1503 1505 1506 1508 1510 1511 1513 1514 1516 1518 1519 1520 1521 1522 1523 1524 1525 1526 1527 1528 1528 1529 1529 1530 1530 1531 1531 1531 1531 1531 1531 1531 1531 1530 1529 1528 1527
1493 1495 1496 1497 1498 1499 1501 1502 1504 1506 1508 1509 1511 1513 1514 1515 1516 1517 1519 1520 1521 1522 1523 1524 1525 1526 1527 1527 1528 1528 1529 1529 1529 1529 1530 1530 1530 1530 1529 1529 1528 1527 1526
1491 1492 1494 1495 1496 1498 1499 1500 1502 1503 1505 1506 1508 1510 1511 1512 1514 1515 1516 1518 1519 1520 1521 1522 1523 1524 1525 1525 1526 1527 1527 1528 1528 1528 1528 1528 1528 1528 1528 1527 1526 1525 1524
1489 1490 1491 1492 1493 1494 1496 1497 1499 1501 1503 1504 1505 1507 1509 1510 1511 1512 1513 1515 1516 1517 1519 1520 1521 1522 1522 1523 1524 1525 1525 1526 1526 1526 1527 1527 1527 1526 1526 1525 1525 1524 1522
1486 1488 1488 1489 1489 1491 1492 1494 1496 1498 1500 1501 1503 1504 1505 1507 1508 1509 1510 1512 1513 1514 1516 1518 1519 1520 1521 1522 1522 1523 1523 1524 1524 1524 1525 1525 1525 1524 1524 1523 1522 1521 1520
1485 1485 1486 1486 1487 1488 1490 1491 1493 1494 1497 1499 1500 1502 1503 1504 1506 1507 1507 1509 1510 1511 1513 1515 1516 1517 1518 1519 1520 1520 1521 1522 1522 1522 1522 1523 1523 1522 1522 1521 1520 1519 1518
1481 1482 1483 1484 1485 1486 1488 1489 1491 1492 1494 1495 1497 1499 1501 1502 1503 1504 1505 1505 1507 1509 1510 1512 1514 1515 1515 1517 1517 1518 1519 1520 1519 1520 1520 1520 1520 1520 1519 1519 1518 1517 1515
1478 1480 1481 1482 1483 1484 1485 1487 1488 1489 1491 1492 1494 1496 1498 1500 1501 1502 1503 1503 1504 1506 1507 1509 1511 1512 1513 1514 1515 1517 1517 1516 1517 1518 1518 1518 1518 1517 1517 1516 1515 1514 1513
1476 1477 1479 1480 1481 1482 1483 1484 1484 1485 1487 1489 1491 1493 1494 1496 1498 1499 1500 1501 1502 1503 1505 1507 1508 1510 1511 1512 1513 1514 1515 1515 1515 1515 1516 1516 1515 1515 1514 1514 1513 1512 1510
1474 1475 1476 1477 1478 1479 1480 1481 1483 1483 1485 1487 1489 1490 1491 1493 1494 1496 1498 1498 1499 1500 1502 1504 1506 1507 1508 1509 1510 1511 1512 1513 1513 1513 1512 1513 1513 1512 1512 1511 1510 1509 1508
1473 1473 1474 1474 1475 1476 1477 1478 1480 1481 1482 1484 1486 1487 1488 1490 1491 1493 1494 1496 1497 1498 1499 1501 1503 1504 1505 1506 1507 1509 1509 1510 1510 1510 1510 1509 1509 1509 1509 1508 1507 1506 1505